Starlink 4400

operational
NORAD ID: 53468 Int'l Des: 2022-099 Owner: SPXS Country: US Constellation: starlink
LEOCIRCULARRETROGRADESSO

Über Starlink 4400

Beschreibung wird geladen...

Live-Position

3D-Globus wird geladen...

Nächste Überflüge

Höhenverlauf

Altitude vs Time

uPlot chart will show altitude changes over time

Zweizeiliger Elementsatz

1 53468U 22099D 25259.09500256 .00000397 00000-0 35417-4 0 9991
2 53468 97.6023 19.2771 0000778 313.1210 46.9949 15.01258583169785
Epoch: 16. Sept. 2025 • Age: 12 hours

Aktueller Status

Höhe 582.5 km
Geschwindigkeit 7.57 km/s
Subsatellitenpunkt -50.37°S, 22.78°W
Startdatum 12. Aug. 2022
Alter 3 years
Typ internet

Technische Details

Klassifizierung Payload
Masse 300.00 kg
Trockenmasse 275.00 kg
Gesamtmasse 300.00 kg
Länge 0.20 m
Durchmesser 2.80 m
Spannweite 9.00 m
Form Box + pan
Hersteller SPXS
Bus-Typ Starlink
Phasenstatus In Orbit
Besitzer/Staat SPXS/US

Große Konstellationen

Loading constellations...